Starlink 35432

operational
NORAD ID: 66021 Int'l Des: 2025-232 Owner: SPXS Country: US Constellation: starlink
LEOCIRCULAR

About Starlink 35432

Description loading...

Live Position

Loading 3D Globe...

Upcoming Passes

Altitude History

Altitude vs Time

uPlot chart will show altitude changes over time

Two-Line Element Set

1 66021U 25232S 25340.81645769 .00097115 00000-0 24055-2 0 9990
2 66021 53.1585 175.4846 0001058 66.0188 294.0927 15.39640182 9216
Epoch: Dec 6, 2025 • Age: 17 hours

Current Status

Altitude 449.0 km
Velocity 7.64 km/s
Sub-Earth Point -8.64°S, 101.19°W
Launch Date Oct 16, 2025
Age 0.1 years
Type internet

Technical Details

Classification Payload
Mass 575.00 kg
Dry Mass 530.00 kg
Total Mass 575.00 kg
Length 0.30 m
Diameter 4.10 m
Span 29.00 m
Shape Box + pan
Manufacturer SPXS
Bus Type Starlink V2MO
Phase Status In Orbit
Owner/State SPXS/US

Large Constellations

Loading constellations...